Simultaneous Nadir Overpasses (SNOs) Predictions

Prediction of SNOs between METOP-B and TERRA Satellite Orbit:

Table of predicted SNOs for the next 14.0 days since TLE Epoch: 3/22/2014
Index Date (METOP-B) Time (METOP-B) Lat,Lon (METOP-B) SZA (METOP-B ) Date (TERRA) Time (TERRA) Lat,Lon (TERRA) SZA (TERRA ) Distance(km) Time Diff (sec)
1 03/22/2014 07:41:40 81.31, 111.92 83.27 03/22/2014 07:42:37 81.32, 111.95 83.30 0.69 57
2 03/22/2014 08:32:20 -81.31, -80.44 96.72 03/22/2014 08:32:04 -81.31, -80.50 96.73 1.03 16
3 03/25/2014 03:16:02 81.31, 178.44 82.20 03/25/2014 03:16:56 81.32, 178.40 82.22 0.87 54
4 03/25/2014 04:06:42 -81.32, -13.86 97.78 03/25/2014 04:06:23 -81.31, -14.02 97.80 2.65 19
5 03/27/2014 22:50:25 81.31,-115.51 81.08 03/27/2014 22:51:15 81.31,-115.35 81.12 2.82 50
6 03/
